Tracking 29892 objects as of 21-Nov-2024
HD Live streaming from Space Station
objects crossing your sky now

FENGYUN 1C DEB

Track FENGYUN 1C DEB now!
10-day predictions


NORAD ID: 31285
Int'l Code: 1999-025BNT
Perigee: 670.7 km
Apogee: 959.8 km
Inclination: 98.5 °
Period: 101.0 minutes
Semi major axis: 7186 km
RCS: 0.0163 m2 (small)
Launch date: May 10, 1999
Source: People's Republic of China (PRC)
Launch site: Taiyaun Space Center, China (TSC)

Note: This is SATELLITE DEBRIS
Your satellite tracking list
Your tracking list is empty




NASA's NSSDC Master Catalog

Two Line Element Set (TLE):
1 31285U 99025BNT 24324.25320949  .00001140  00000-0  40988-3 0  9991
2 31285  98.4810 310.1921 0201124 244.3890 125.2388 14.25110111917641
Source of the keplerian elements: AFSPC